Location: Granada Hills
(34.2650°N, 118.5220°W)
Time: 03:08:42
(UTC-07:00)

deb Kosmos-1763 - Visible Passes

Search period start: 21 August 2014 00:00
Search period end: 31 August 2014 00:00
Orbit: 569 x 579 km, 74.0° (Epoch: 20 August)

Date Brightness Start Highest point End Pass type
(mag) Time Alt. Az. Time Alt. Az. Time Alt. Az.
27 Aug 7.4 22:31:00 10° N 22:31:13 11° N 22:31:13 11° N visible
28 Aug 7.4 22:33:54 10° N 22:34:18 13° N 22:34:18 13° N visible
29 Aug 7.4 22:36:54 10° NNW 22:37:23 13° NNW 22:37:23 13° NNW visible
30 Aug 7.4 22:40:00 10° NNW 22:40:30 13° NNW 22:40:30 13° NNW visible
